Regional Weather Roundup
Issued by NWS

Home | Current Version | Previous Version | Graphics & Text | Print | Product List | Glossary Off
Versions: 1 2 3 4 5 6 7 8 9 10 11 12 13 14 15 16 17 18 19 20 21 22 23 24 25 26 27 28 29 30 31 32 33 34 35 36 37 38 39 40 41 42 43 44 45 46 47 48 49 50

000
ASUS43 KMKX 191400
RWRWI

WISCONSIN REGIONAL WEATHER ROUNDUP
NATIONAL WEATHER SERVICE MILWAUKEE/SULLIVAN WI
900 AM CDT SAT AUG 19 2017

NOTE: "FAIR" INDICATES FEW OR NO CLOUDS BELOW 12,000 FEET WITH NO
SIGNIFICANT WEATHER AND/OR OBSTRUCTIONS TO VISIBILITY.

WIZ001-002-006>008-014>016-023>028-191500-
NORTHWEST WISCONSIN

CITY           SKY/WX    TMP DP  RH WIND       PRES   REMARKS
SUPERIOR ARPT    N/A     62  60  92 SW7       29.90R
ASHLAND        SUNNY     67  60  78 W10       29.89S
HAYWARD        SUNNY     61  59  93 SW5       29.94R
SIREN          SUNNY     64  61  91 W6        29.94R
CUMBERLAND     SUNNY     61  61 100 W3        29.95S
RICE LAKE      SUNNY     61  61  98 CALM      29.96S FOG
CHETEK         SUNNY     61  61 100 SW3       29.95S
LADYSMITH      SUNNY     62  62  97 SW5       29.97R
EAU CLAIRE     NOT AVBL
MENOMONIE      SUNNY     62  62 100 CALM      29.96R
NEW RICHMOND   SUNNY     62  62 100 SW5       29.96S FOG
OSCEOLA        SUNNY     61  61 100 CALM      29.98S
$$

WIZ003>005-009-010-017-018-191500-
NORTH CENTRAL WISCONSIN

CITY           SKY/WX    TMP DP  RH WIND       PRES   REMARKS
MANITOWISH WTR SUNNY     61  61 100 W5        29.92S
ARBOR VITAE    SUNNY     63  61  92 W6        29.93R
WOODRUFF       SUNNY     63  61  92 W6        29.93R
RHINELANDER    SUNNY     65  60  84 W9        29.94S
EAGLE RIVER    SUNNY     62  61  96 W6        29.92S
LAND O LAKES   SUNNY     63  59  89 W7        29.93S
PHILLIPS       SUNNY     62  60  94 SW5       29.93S
TOMAHAWK         N/A     61  60  96 CALM      29.94S
MEDFORD        CLOUDY    60  60  99 W5        29.95S FOG
MERRILL        NOT AVBL
$$

WIZ029-030-035-036-043>047-191500-
CENTRAL WISCONSIN

CITY           SKY/WX    TMP DP  RH WIND       PRES   REMARKS
WAUSAU         SUNNY     65  60  84 W6        29.94R
MOSINEE        MOSUNNY   66  63  88 W5        29.96S
MARSHFIELD     SUNNY     66  60  81 W5        29.96R
STEVENS POINT  SUNNY     62  61  94 NW3       29.96S
WAUPACA        SUNNY     69  62  76 W6        29.94F
WAUTOMA        SUNNY     68  62  81 NW5       29.96
WISC RAPIDS    MOSUNNY   63  62  97 CALM      29.97S
CAMP DOUGLAS   NOT AVBL
$$

WIZ011>013-019>022-031-037>040-048>050-191500-
NORTHEAST WISCONSIN

CITY           SKY/WX    TMP DP  RH WIND       PRES   REMARKS
ANTIGO         PTSUNNY   63  61  93 W6        29.95S
SHAWANO        SUNNY     69  63  82 NW6       29.92S
OCONTO         CLOUDY    64  62  92 W9        29.90S
STURGEON BAY   CLOUDY    64  61  90 W10       29.91R
GREEN BAY      PTSUNNY   67  64  90 SW7       29.93S
MANITOWOC      CLOUDY    64  61  88 NW12      29.93S FOG
APPLETON       PTSUNNY   64  64 100 W6        29.93S FOG
CLINTONVILLE   PTSUNNY   66  63  88 W5        29.93S
OSHKOSH        CLOUDY    66  62  87 W8        29.94S FOG
$$

WIZ032>034-041-042-053>061-191500-
SOUTHWEST WISCONSIN

CITY           SKY/WX    TMP DP  RH WIND       PRES   REMARKS
LA CROSSE      FOG       62  61  96 CALM      29.97R VSB 1/2
SPARTA         FOG       55  55 100 CALM      29.97S VSB 1
VIROQUA        SUNNY     65  62  91 CALM      29.98R
BOSCOBEL       FOG       60  60 100 CALM      29.98S VSB<1/4
PRAIRIE DU CHI FOG       58  57  96 CALM      29.98R VSB 1/4
PLATTEVILLE    SUNNY     63  63 100 CALM      29.99R
$$

WIZ056-057-062-063-064-067-068-191500-
SOUTH CENTRAL WISCONSIN

CITY           SKY/WX    TMP DP  RH WIND       PRES   REMARKS
REEDSBURG      SUNNY     62  61  99 CALM      29.96F
BARABOO/DELLS  SUNNY     64  61  90 CALM      29.97S
LONE ROCK      NOT AVBL
MINERAL POINT  SUNNY     64  64 100 CALM      29.98S
MADISON        SUNNY     68  63  84 VRB3      29.96S
MIDDLETON      SUNNY     66  66  99 CALM      29.97S
WATERTOWN      CLOUDY    62  62 100 NW6       29.96R FOG
MONROE         SUNNY     64  61  88 CALM      29.98R
JANESVILLE     SUNNY     66  66 100 CALM      29.95S
$$

WIZ051-052-058>065-066-070>072-191500-
SOUTHEAST WISCONSIN

CITY           SKY/WX    TMP DP  RH WIND       PRES   REMARKS
MILWAUKEE      SUNNY     70  62  76 NW6       29.94S
WAUKESHA       CLOUDY    63  61  94 W3        29.97R FOG
MILWAUKEE/TIMM MOSUNNY   66  59  77 W5        29.95S
RACINE         SUNNY     70  63  78 CALM      29.96S
KENOSHA        SUNNY     70  62  76 CALM      29.95S
FOND DU LAC    CLOUDY    66  62  87 NW5       29.96R
SHEBOYGAN      MOSUNNY   68  65  90 W8        29.94S
WEST BEND      CLOUDY    64  63  94 NW9       29.95S
JUNEAU         CLOUDY    63  62  97 CALM      29.97R FOG
$$

LSZ147-162-191500-
LAKE SUPERIOR

STATION/POSITION TIME  TEMP    WIND        PRES    WAVE
                       AIR SEA DIR/SP/G            HT/PER
                 (UTC) (F)     (DEG/KT/KT) (MB)    (FT/S)
W MID LAKE BUOY  1250   61 60  250/ 12/ 14 1010.0R   2/ 4
DEVILS ISLAND    1300   61     230/ 14/ 15 1011.2R
SAXON HARBOR     1330   66     200/  6/  9 1011.5S
$$

LMZ867-665-643>646-191500-
LAKE MICHIGAN

STATION/POSITION TIME  TEMP    WIND        PRES    WAVE
                       AIR SEA DIR/SP/G            HT/PER
                 (UTC) (F)     (DEG/KT/KT) (MB)    (FT/S)
S GREEN BAY BUOY 1330   64 70  260/ 10/ 14 1012.6R
N MID LAKE BUOY  1250   65 66  230/ 10/ 12 1012.1R   1
NORTHPORT PIER   1340   71     270/  2/  4 1011.5F
KEWAUNEE LAKESHO 1330   63     290/  6/ 11 1011.8F
SHEBOYGAN LAKESH 1300   65     280/ 11/ 13 1012.9R
PORT WASHINGTON  1330   69     300/  7/ 10 1014.2F
ATWATER BUOY     1209   65 70  300/  6/  8 1014.0R
MILWAUKEE LAKESH 1330   67     270/  5/  6   N/A
S MID LAKE BUOY  1250   69 71  350/  6/  6 1013.6R   1/ 3
KENOSHA   LAKESH 1300   66     360/  5/  7 1013.9
$$

TC  - TEMPERATURE IN CELSIUS
VSB - VISIBILITY IN STATUTE MILES
WCI - WIND CHILL INDEX
HX  - HEAT INDEX





USA.gov is the U.S. government's official web portal to all federal, state and local government web resources and services.